Flag for Canada Weather past 2 weeks in Peterborough, Ontario, Canada

Now
-2 °F

Clear.


Feels Like: -10 °F
Forecast: -6 / 29 °F
Wind: 3 mph from South

Location: Peterborough Airport

Current Time: Mar 3, 2015 at 12:19:10 AM

Latest Report: Mar 3, 2015 at 12:00 AM


Visibility: 9 mi

Pressure: 30.40 "Hg

Humidity: 92%

Dew point: -4 °F

Location of PeterboroughLocation

Historic Weather in Peterborough — Graph

°F

Peterborough temperature yesterday

Maximum temperature yesterday: 25 °F (at 11:00 AM)
Minimum temperature yesterday: 1 °F (at 11:00 PM)
Average temperature yesterday: 18 °F

Past Weeks' High & Low Weather Summary

 TemperatureHumidityPressure
High25 °F (Feb 22, 2:53 PM)100% (Feb 21, 7:00 PM)30.77 "Hg (Feb 21, 7:00 PM)
Low-18 °F (Feb 16, 8:00 AM)25% (Feb 16, 3:00 PM)29.58 "Hg (Feb 25, 3:00 AM)
Average4 °F72%30.17 "Hg
* Reported Feb 15 11:00 PM — Mar 2 11:00 PM, Peterborough, Weather by CustomWeather, © 2015

Note: Actual official high and low records may vary slightly from our data, if they occured in-between our weather recording intervals... More about our weather records

Advertising

Peterborough weather history for previous 24 hours

 ConditionsComfort  
Time TempWeatherWind HumidityBarometerVisibility
11:00 PM
Mon, Mar 2
1 °FClear.6 mph92%30.42 "Hg9 mi
10:00 PM7 °FClear.3 mph85%30.42 "Hg9 mi
9:00 PM14 °FClear.7 mph73%30.41 "Hg9 mi
8:00 PM16 °FClear.8 mph62%30.40 "Hg9 mi
7:00 PM18 °FClear.9 mph62%30.39 "Hg9 mi
6:00 PM19 °FSunny.13 mph58%30.37 "Hg9 mi
5:00 PM21 °FLight snow. Sunny.17 mph58%30.34 "Hg9 mi
4:00 PM23 °FPartly sunny.17 mph50%30.32 "Hg9 mi
3:00 PM23 °FScattered clouds.22 mph54%30.28 "Hg9 mi
2:00 PM23 °FPartly sunny.18 mph58%30.26 "Hg6 mi
1:00 PM25 °FPartly sunny.21 mph54%30.24 "Hg9 mi
12:00 PM23 °FLight snow. Mostly cloudy.22 mph68%30.22 "Hg3 mi
11:00 AM25 °FPartly sunny.23 mph69%30.19 "Hg4 mi
10:03 AM23 °FLight snow. Overcast.29 mph74%30.18 "Hg2 mi
9:01 AM23 °FLight snow. Partly sunny.15 mph80%30.16 "Hg9 mi
8:00 AM19 °FLight snow. Partly sunny.9 mph86%30.15 "Hg8 mi
7:00 AM19 °FLight snow. Mostly cloudy.8 mph93%30.12 "Hg4 mi
6:00 AM19 °FLight snow. Mostly cloudy.9 mph93%30.11 "Hg3 mi
5:00 AM18 °FLight snow. Mostly cloudy.7 mph93%30.09 "Hg3 mi
4:00 AM18 °FLight snow. Mostly cloudy.6 mph93%30.09 "Hg3 mi
3:54 AM18 °FLight snow. Mostly cloudy.6 mph93%30.09 "Hg3 mi
3:00 AM18 °FLight snow. Overcast.5 mph93%30.10 "Hg2 mi
2:54 AM18 °FLight snow. Overcast.5 mph93%30.11 "Hg2 mi
2:00 AM18 °FLight snow. Overcast.5 mph93%30.11 "Hg3 mi
1:53 AM18 °FLight snow. Overcast.5 mph93%30.12 "Hg3 mi
1:00 AM18 °FLight snow. Overcast.6 mph93%30.12 "Hg2 mi
12:47 AM18 °FLight snow. Overcast.6 mph86%30.12 "Hg2 mi
12:00 AM14 °FMostly cloudy.5 mph92%30.12 "Hg8 mi
Weather by CustomWeather, © 2015

See weather overviewHow to use our weather pages